DLH37A LSGG-LSZH

Flight info

Callsign DLH37A
Flight time 0h 32m
Altitude 17000
Route SOSAL N871 BERSU
Aircraft A20N/M-SDE2E3FGHIRWXY/LB1

Departure

Time 2026-02-20 11:08
Airport Geneva International Airport (LSGG)

Arrival

Time 2026-02-20 11:40
Airport Zürich Airport (LSZH)
Time Latitude Longitude Altitude Speed Heading
2026-02-20 10:34 46.23523 6.10962 1374 ft 0 kts 136°
2026-02-20 11:04 46.23506 6.10985 1375 ft 8 kts 136°
2026-02-20 11:04 46.23507 6.11067 1374 ft 11 kts 50°
2026-02-20 11:05 46.23573 6.11163 1373 ft 14 kts 37°
2026-02-20 11:05 46.23636 6.11117 1377 ft 12 kts 315°
2026-02-20 11:05 46.23708 6.11078 1378 ft 12 kts 18°
2026-02-20 11:05 46.23790 6.11082 1376 ft 12 kts 349°
2026-02-20 11:06 46.23867 6.11059 1378 ft 9 kts 343°
2026-02-20 11:06 46.23887 6.11008 1379 ft 4 kts 241°
2026-02-20 11:06 46.23881 6.11001 1376 ft 0 kts 224°
2026-02-20 11:06 46.23881 6.11000 1376 ft 1 kts 224°
2026-02-20 11:07 46.23846 6.10952 1378 ft 24 kts 225°
2026-02-20 11:07 46.23548 6.10517 1385 ft 94 kts 225°
2026-02-20 11:07 46.23180 6.09980 1400 ft 131 kts 225°
2026-02-20 11:07 46.22482 6.08976 1826 ft 137 kts 224°
2026-02-20 11:08 46.21817 6.07963 2357 ft 147 kts 225°
2026-02-20 11:08 46.21088 6.06856 2855 ft 157 kts 226°
2026-02-20 11:08 46.20315 6.05693 3437 ft 164 kts 227°
2026-02-20 11:08 46.19503 6.04476 4067 ft 173 kts 228°
2026-02-20 11:09 46.18654 6.03205 4754 ft 182 kts 228°
2026-02-20 11:09 46.17732 6.01836 5347 ft 200 kts 227°
2026-02-20 11:09 46.16700 6.00354 5874 ft 220 kts 227°
2026-02-20 11:09 46.15534 5.98779 6472 ft 239 kts 216°
2026-02-20 11:10 46.13933 5.97988 7181 ft 253 kts 181°
2026-02-20 11:10 46.12218 5.98577 8003 ft 257 kts 148°
2026-02-20 11:10 46.10939 6.00305 8994 ft 253 kts 119°
2026-02-20 11:10 46.10391 6.02678 9879 ft 251 kts 89°
2026-02-20 11:11 46.10683 6.05128 10706 ft 249 kts 65°
2026-02-20 11:11 46.11507 6.07312 11528 ft 248 kts 48°
2026-02-20 11:11 46.12666 6.09172 12299 ft 255 kts 43°
2026-02-20 11:11 46.13903 6.11164 12687 ft 279 kts 45°
2026-02-20 11:12 46.15196 6.13416 13031 ft 303 kts 47°
2026-02-20 11:12 46.16531 6.15872 13314 ft 327 kts 49°
2026-02-20 11:12 46.17944 6.18543 13828 ft 340 kts 49°
2026-02-20 11:12 46.19372 6.21275 14626 ft 342 kts 49°
2026-02-20 11:13 46.20811 6.24028 15423 ft 344 kts 49°
2026-02-20 11:13 46.22258 6.26793 16198 ft 346 kts 49°
2026-02-20 11:13 46.23715 6.29572 16915 ft 349 kts 48°
2026-02-20 11:13 46.25187 6.32375 17201 ft 350 kts 48°
2026-02-20 11:14 46.26653 6.35172 17276 ft 351 kts 48°
2026-02-20 11:14 46.28131 6.37991 17276 ft 350 kts 48°
2026-02-20 11:14 46.29602 6.40799 17286 ft 350 kts 48°
2026-02-20 11:14 46.31071 6.43605 17273 ft 349 kts 48°
2026-02-20 11:15 46.32537 6.46409 17269 ft 349 kts 48°
2026-02-20 11:15 46.34007 6.49221 17265 ft 350 kts 48°
2026-02-20 11:15 46.35473 6.52028 17263 ft 350 kts 48°
2026-02-20 11:15 46.36948 6.54822 17259 ft 349 kts 47°
2026-02-20 11:16 46.38474 6.57545 17255 ft 349 kts 46°
2026-02-20 11:16 46.40011 6.60229 17257 ft 351 kts 46°
2026-02-20 11:16 46.41568 6.62953 17256 ft 350 kts 46°
2026-02-20 11:16 46.43115 6.65679 17257 ft 350 kts 46°
2026-02-20 11:17 46.44658 6.68414 17255 ft 351 kts 46°
2026-02-20 11:17 46.46200 6.71164 17254 ft 351 kts 46°
2026-02-20 11:17 46.47736 6.73918 17254 ft 351 kts 46°
2026-02-20 11:17 46.49268 6.76669 17255 ft 351 kts 46°
2026-02-20 11:18 46.50805 6.79432 17253 ft 351 kts 47°
2026-02-20 11:18 46.52340 6.82193 17254 ft 351 kts 47°
2026-02-20 11:18 46.53876 6.84959 17254 ft 351 kts 47°
2026-02-20 11:18 46.55409 6.87720 17274 ft 351 kts 47°
2026-02-20 11:19 46.56944 6.90481 17262 ft 352 kts 47°
2026-02-20 11:19 46.58458 6.93200 17260 ft 351 kts 47°
2026-02-20 11:19 46.60002 6.95973 17257 ft 351 kts 47°
2026-02-20 11:19 46.61543 6.98745 17257 ft 351 kts 47°
2026-02-20 11:20 46.63078 7.01509 17263 ft 351 kts 47°
2026-02-20 11:20 46.64607 7.04267 17264 ft 350 kts 47°
2026-02-20 11:20 46.66142 7.07036 17264 ft 351 kts 47°
2026-02-20 11:20 46.67675 7.09804 17263 ft 351 kts 47°
2026-02-20 11:21 46.69204 7.12570 17259 ft 350 kts 47°
2026-02-20 11:21 46.70735 7.15340 17262 ft 351 kts 47°
2026-02-20 11:21 46.72248 7.18079 17256 ft 351 kts 47°
2026-02-20 11:21 46.73779 7.20856 17251 ft 351 kts 47°
2026-02-20 11:22 46.75312 7.23637 17252 ft 353 kts 47°
2026-02-20 11:22 46.76853 7.26438 17240 ft 354 kts 47°
2026-02-20 11:22 46.78389 7.29233 17235 ft 353 kts 47°
2026-02-20 11:22 46.79927 7.32038 17238 ft 353 kts 47°
2026-02-20 11:23 46.81461 7.34838 17264 ft 353 kts 47°
2026-02-20 11:23 46.82995 7.37638 17239 ft 353 kts 48°
2026-02-20 11:23 46.84525 7.40432 17245 ft 353 kts 48°
2026-02-20 11:23 46.86054 7.43232 17236 ft 352 kts 48°
2026-02-20 11:24 46.87583 7.46039 17237 ft 353 kts 48°
2026-02-20 11:24 46.89111 7.48847 17246 ft 353 kts 48°
2026-02-20 11:24 46.90638 7.51658 17230 ft 353 kts 48°
2026-02-20 11:24 46.92166 7.54471 17229 ft 353 kts 48°
2026-02-20 11:25 46.93693 7.57285 17230 ft 354 kts 48°
2026-02-20 11:25 46.95233 7.60124 17239 ft 356 kts 48°
2026-02-20 11:25 46.96769 7.62961 17230 ft 355 kts 48°
2026-02-20 11:25 46.98302 7.65797 17227 ft 355 kts 48°
2026-02-20 11:26 46.99834 7.68632 17231 ft 355 kts 48°
2026-02-20 11:26 47.01369 7.71474 17234 ft 355 kts 48°
2026-02-20 11:26 47.02903 7.74314 17230 ft 356 kts 48°
2026-02-20 11:26 47.04438 7.77157 17230 ft 355 kts 48°
2026-02-20 11:27 47.05949 7.79962 17230 ft 356 kts 48°
2026-02-20 11:27 47.07483 7.82810 17223 ft 354 kts 49°
2026-02-20 11:27 47.09008 7.85647 16975 ft 353 kts 49°
2026-02-20 11:27 47.10525 7.88461 16526 ft 350 kts 47°
2026-02-20 11:28 47.12337 7.90774 15879 ft 345 kts 27°
2026-02-20 11:28 47.14481 7.92335 15286 ft 343 kts 23°
2026-02-20 11:28 47.16631 7.93832 14773 ft 341 kts 23°
2026-02-20 11:28 47.18765 7.95320 14279 ft 338 kts 23°
2026-02-20 11:29 47.20872 7.96790 13862 ft 333 kts 23°
2026-02-20 11:29 47.22958 7.98247 13443 ft 326 kts 23°
2026-02-20 11:29 47.24964 7.99649 13051 ft 321 kts 23°
2026-02-20 11:29 47.26967 8.01052 12654 ft 316 kts 23°
2026-02-20 11:30 47.28945 8.02437 12270 ft 312 kts 23°
2026-02-20 11:30 47.30892 8.03803 11873 ft 308 kts 23°
2026-02-20 11:30 47.32805 8.05143 11602 ft 301 kts 23°
2026-02-20 11:30 47.34675 8.06449 11350 ft 293 kts 23°
2026-02-20 11:31 47.36501 8.07727 11069 ft 288 kts 23°
2026-02-20 11:31 47.38304 8.08994 10672 ft 287 kts 23°
2026-02-20 11:31 47.40112 8.10257 10251 ft 287 kts 23°
2026-02-20 11:31 47.41912 8.11515 9828 ft 286 kts 23°
2026-02-20 11:32 47.43701 8.12774 9409 ft 284 kts 23°
2026-02-20 11:32 47.45482 8.14028 9013 ft 282 kts 23°
2026-02-20 11:32 47.48994 8.16529 8193 ft 279 kts 23°
2026-02-20 11:33 47.50724 8.17776 7909 ft 273 kts 23°
2026-02-20 11:33 47.52409 8.19013 7659 ft 267 kts 23°
2026-02-20 11:33 47.54055 8.20236 7401 ft 261 kts 23°
2026-02-20 11:33 47.55637 8.21417 7166 ft 256 kts 23°
2026-02-20 11:34 47.57209 8.22603 6903 ft 252 kts 23°
2026-02-20 11:34 47.58760 8.23772 6655 ft 248 kts 23°
2026-02-20 11:34 47.60275 8.24933 6390 ft 242 kts 23°
2026-02-20 11:34 47.61752 8.26067 6123 ft 236 kts 23°
2026-02-20 11:35 47.63151 8.27281 5836 ft 233 kts 40°
2026-02-20 11:35 47.63918 8.29355 5565 ft 233 kts 82°
2026-02-20 11:35 47.63647 8.31655 5328 ft 227 kts 118°
2026-02-20 11:35 47.62754 8.33540 5069 ft 222 kts 134°
2026-02-20 11:36 47.61677 8.35147 4844 ft 215 kts 139°
2026-02-20 11:36 47.60610 8.36604 4628 ft 204 kts 140°
2026-02-20 11:36 47.59620 8.37965 4500 ft 203 kts 139°
2026-02-20 11:36 47.58594 8.39375 4268 ft 197 kts 140°
2026-02-20 11:37 47.57596 8.40744 4026 ft 198 kts 140°
2026-02-20 11:37 47.56590 8.42126 3749 ft 194 kts 139°
2026-02-20 11:37 47.55644 8.43427 3509 ft 180 kts 140°
2026-02-20 11:37 47.54771 8.44626 3290 ft 163 kts 140°
2026-02-20 11:38 47.53980 8.45709 3068 ft 148 kts 140°
2026-02-20 11:38 47.53250 8.46711 2877 ft 143 kts 140°
2026-02-20 11:38 47.52519 8.47709 2678 ft 142 kts 140°
2026-02-20 11:38 47.51795 8.48702 2480 ft 141 kts 139°
2026-02-20 11:39 47.51069 8.49689 2265 ft 142 kts 139°
2026-02-20 11:39 47.50351 8.50668 2055 ft 142 kts 138°
2026-02-20 11:39 47.49625 8.51667 1855 ft 143 kts 137°
2026-02-20 11:39 47.48891 8.52680 1644 ft 145 kts 138°
2026-02-20 11:40 47.48146 8.53695 1437 ft 145 kts 137°
2026-02-20 11:40 47.47441 8.54659 1398 ft 120 kts 137°
2026-02-20 11:40 47.46980 8.55284 1394 ft 62 kts 137°
2026-02-20 11:40 47.46764 8.55562 1398 ft 34 kts 148°
2026-02-20 11:41 47.46572 8.55686 1403 ft 20 kts 166°
2026-02-20 11:41 47.46438 8.55729 1400 ft 21 kts 167°
2026-02-20 11:41 47.46347 8.55807 1402 ft 13 kts 136°
2026-02-20 11:41 47.46285 8.55896 1401 ft 12 kts 136°
2026-02-20 11:42 47.46226 8.55975 1400 ft 11 kts 140°
2026-02-20 11:42 47.46151 8.56003 1399 ft 12 kts 189°
2026-02-20 11:42 47.46135 8.55960 1398 ft 7 kts 275°
2026-02-20 11:42 47.46140 8.55877 1396 ft 4 kts 275°
2026-02-20 11:43 47.46141 8.55863 1396 ft 0 kts 275°